timestamp,surface_pressure_avg,surface_temp_avg,battery_voltage,lat,long
2022-07-02 00:09:00+00:00,327.4613,14.4,12.09,47.84626,-54.09684
2022-07-02 00:19:00+00:00,332.353,14.4,12.09,47.84626,-54.09684
2022-07-02 00:29:00+00:00,333.7363,14.4,12.09,47.84626,-54.09684
2022-07-02 00:39:00+00:00,340.3679,14.4,12.09,47.84626,-54.09684
2022-07-02 00:49:00+00:00,345.6629,14.36,12.09,47.84626,-54.09684
2022-07-02 00:59:00+00:00,345.5295,14.4,12.09,47.84626,-54.09684
2022-07-02 01:09:00+00:00,345.73800000000006,14.4,12.09,47.84626,-54.09684
2022-07-02 01:19:00+00:00,349.1595,14.3,12.09,47.84626,-54.09684
2022-07-02 01:29:00+00:00,349.2712,14.36,12.09,47.84626,-54.09684
2022-07-02 01:39:00+00:00,348.9613,14.45,12.09,47.84626,-54.09684
2022-07-02 01:49:00+00:00,349.2313,14.55,12.09,47.84626,-54.09684
2022-07-02 01:59:00+00:00,349.8512,14.59,12.09,47.84626,-54.09684
2022-07-02 02:09:00+00:00,349.838,14.67,12.09,47.84626,-54.09684
2022-07-02 02:19:00+00:00,348.7712,14.8,12.09,47.84626,-54.09684
2022-07-02 02:29:00+00:00,345.7064,14.9,12.09,47.84626,-54.09684
2022-07-02 02:39:00+00:00,340.338,15.0,12.09,47.84626,-54.09684
2022-07-02 02:49:00+00:00,337.7363,15.1,12.09,47.84626,-54.09684
2022-07-02 02:59:00+00:00,336.0763,15.2,12.09,47.84626,-54.09684
2022-07-02 03:09:00+00:00,331.5496,15.28,12.09,47.84626,-54.09684
2022-07-02 03:19:00+00:00,325.8396,15.39,12.09,47.84626,-54.09684
2022-07-02 03:29:00+00:00,324.313,15.49,12.09,47.84626,-54.09684
2022-07-02 03:39:00+00:00,321.1164,15.5,12.09,47.84626,-54.09684
2022-07-02 03:49:00+00:00,313.9413,15.5,12.09,47.84626,-54.09684
2022-07-02 03:59:00+00:00,308.3663,15.52,12.09,47.84626,-54.09684
2022-07-02 04:09:00+00:00,306.3997,15.6,12.09,47.84626,-54.09684
2022-07-02 04:19:00+00:00,300.9347,15.6,12.09,47.84626,-54.09684
2022-07-02 04:29:00+00:00,291.3814,15.6,12.09,47.84626,-54.09684
2022-07-02 04:39:00+00:00,285.2747,15.6,12.09,47.84626,-54.09684
2022-07-02 04:49:00+00:00,278.6697,15.7,12.09,47.84626,-54.09684
2022-07-02 04:59:00+00:00,270.4231,15.81,12.09,47.84626,-54.09684
2022-07-02 05:09:00+00:00,259.8365,15.89,12.09,47.84626,-54.09684
2022-07-02 05:19:00+00:00,249.9965,15.88,12.09,47.84626,-54.09684
2022-07-02 05:29:00+00:00,241.8197,15.92,12.09,47.84626,-54.09684
2022-07-02 05:39:00+00:00,234.9414,15.99,12.09,47.84626,-54.09684
2022-07-02 05:49:00+00:00,227.2682,16.0,12.09,47.84626,-54.09684
2022-07-02 05:59:00+00:00,218.2665,16.0,12.09,47.84626,-54.09684
2022-07-02 06:09:00+00:00,211.8931,16.0,12.09,47.84626,-54.09684
2022-07-02 06:19:00+00:00,208.1981,16.0,12.09,47.84626,-54.09684
2022-07-02 06:29:00+00:00,202.2098,16.0,12.09,47.84626,-54.09684
2022-07-02 06:39:00+00:00,197.0231,16.0,12.09,47.84626,-54.09684
2022-07-02 06:49:00+00:00,195.0448,16.0,12.09,47.84626,-54.09684
2022-07-02 06:59:00+00:00,191.9031,16.0,12.09,47.84626,-54.09684
2022-07-02 07:09:00+00:00,189.7998,15.99,12.09,47.84626,-54.09684
2022-07-02 07:19:00+00:00,191.9398,15.97,12.09,47.84626,-54.09684
2022-07-02 07:29:00+00:00,194.5048,15.98,12.09,47.84626,-54.09684
2022-07-02 07:39:00+00:00,193.9665,16.0,12.09,47.84626,-54.09684
2022-07-02 07:49:00+00:00,194.3464,16.0,12.09,47.84626,-54.09684
2022-07-02 07:59:00+00:00,197.8065,16.05,12.09,47.84626,-54.09684
2022-07-02 08:09:00+00:00,200.4065,16.07,12.09,47.84626,-54.09684
2022-07-02 08:19:00+00:00,200.2281,16.08,12.09,47.84626,-54.09684
2022-07-02 08:29:00+00:00,205.7214,16.0,12.09,47.84626,-54.09684
2022-07-02 08:39:00+00:00,211.2998,15.9,12.09,47.84626,-54.09684
2022-07-02 08:49:00+00:00,209.8931,15.89,12.09,47.84626,-54.09684
2022-07-02 08:59:00+00:00,212.0331,15.9,12.09,47.84626,-54.09684
2022-07-02 09:09:00+00:00,218.2548,15.88,12.09,47.84626,-54.09684
2022-07-02 09:19:00+00:00,220.6815,15.81,12.09,47.84626,-54.09684
2022-07-02 09:29:00+00:00,222.6064,15.9,12.09,47.84626,-54.09684
2022-07-02 09:39:00+00:00,229.5531,15.8,12.09,47.84626,-54.09684
2022-07-02 09:49:00+00:00,236.1231,15.7,12.09,47.84626,-54.09684
2022-07-02 09:59:00+00:00,237.2764,15.7,12.09,47.84626,-54.09684
2022-07-02 10:09:00+00:00,237.8281,15.7,12.09,47.84626,-54.09684
2022-07-02 10:19:00+00:00,242.9314,15.6,12.09,47.84626,-54.09684
2022-07-02 10:29:00+00:00,248.5398,15.43,12.09,47.84626,-54.09684
2022-07-02 10:39:00+00:00,251.2398,15.5,12.09,47.84626,-54.09684
2022-07-02 10:49:00+00:00,255.2947,15.51,12.09,47.84626,-54.09684
2022-07-02 10:59:00+00:00,259.0131,15.5,12.09,47.84626,-54.09684
2022-07-02 11:09:00+00:00,260.7331,15.5,12.09,47.84626,-54.09684
2022-07-02 11:19:00+00:00,263.0281,15.6,12.09,47.84626,-54.09684
2022-07-02 11:29:00+00:00,271.0097,15.5,12.09,47.84626,-54.09684
2022-07-02 11:39:00+00:00,277.8113,15.43,12.09,47.84626,-54.09684
2022-07-02 11:49:00+00:00,283.3731,15.57,12.09,47.84626,-54.09684
2022-07-02 11:59:00+00:00,289.7697,15.5,12.09,47.84626,-54.09684
2022-07-02 12:09:00+00:00,296.8797,15.5,12.09,47.84626,-54.09684
2022-07-02 12:19:00+00:00,299.3513,15.54,12.09,47.84626,-54.09684
2022-07-02 12:29:00+00:00,302.3779,15.62,12.09,47.84626,-54.09684
2022-07-02 12:39:00+00:00,309.0563,15.59,12.09,47.84626,-54.09684
2022-07-02 12:49:00+00:00,315.0247,15.48,12.09,47.84626,-54.09684
2022-07-02 12:59:00+00:00,314.0514,15.59,12.09,47.84626,-54.09684
2022-07-02 13:09:00+00:00,314.6114,15.7,12.09,47.84626,-54.09684
2022-07-02 13:19:01+00:00,319.9947,15.42,12.41,47.84626,-54.09684
2022-07-02 13:29:01+00:00,320.9414,15.39,12.41,47.84626,-54.09684
2022-07-02 13:39:01+00:00,321.0264,15.5,12.41,47.84626,-54.09684
2022-07-02 13:49:01+00:00,322.1946,15.3,12.41,47.84626,-54.09684
2022-07-02 13:59:01+00:00,321.043,15.0,12.41,47.84626,-54.09684
2022-07-02 14:09:01+00:00,316.2747,15.28,12.41,47.84626,-54.09684
2022-07-02 14:19:01+00:00,312.9913,15.3,12.49,47.84626,-54.09684
2022-07-02 14:29:01+00:00,313.1347,15.3,12.49,47.84626,-54.09684
2022-07-02 14:39:01+00:00,312.5446,15.32,12.49,47.84626,-54.09684
2022-07-02 14:49:01+00:00,308.503,15.39,12.49,47.84626,-54.09684
2022-07-02 14:59:01+00:00,306.3914,15.3,12.49,47.84626,-54.09684
2022-07-02 15:09:01+00:00,307.2014,15.28,12.49,47.84626,-54.09684
2022-07-02 15:19:00+00:00,302.5031,15.3,12.49,47.84626,-54.09684
2022-07-02 15:29:00+00:00,294.7314,15.37,12.49,47.84626,-54.09684
2022-07-02 15:39:00+00:00,293.7681,15.3,12.49,47.84626,-54.09684
2022-07-02 15:49:00+00:00,293.6797,15.32,12.49,47.84626,-54.09684
2022-07-02 15:59:00+00:00,288.7581,15.4,12.49,47.84626,-54.09684
2022-07-02 16:09:00+00:00,283.2864,15.47,12.49,47.84626,-54.09684
2022-07-02 16:19:00+00:00,279.4514,15.62,12.49,47.84626,-54.09684
2022-07-02 16:29:00+00:00,274.5798,15.69,12.49,47.84626,-54.09684
2022-07-02 16:39:00+00:00,271.1697,15.7,12.49,47.84626,-54.09684
2022-07-02 16:49:00+00:00,268.3698,15.7,12.49,47.84626,-54.09684
2022-07-02 16:59:00+00:00,261.683,15.69,12.49,47.84626,-54.09684
2022-07-02 17:09:00+00:00,255.4731,15.62,12.49,47.84626,-54.09684
2022-07-02 17:19:01+00:00,248.9864,15.6,12.33,47.84626,-54.09684
2022-07-02 17:29:01+00:00,241.7031,15.6,12.33,47.84626,-54.09684
2022-07-02 17:39:01+00:00,233.9131,15.67,12.33,47.84626,-54.09684
2022-07-02 17:49:01+00:00,230.2981,15.7,12.33,47.84626,-54.09684
2022-07-02 17:59:01+00:00,225.2531,15.73,12.33,47.84626,-54.09684
2022-07-02 18:09:01+00:00,217.7498,15.79,12.33,47.84626,-54.09684
2022-07-02 18:19:00+00:00,212.0798,15.8,12.33,47.84626,-54.09684
2022-07-02 18:29:00+00:00,208.9348,15.8,12.33,47.84626,-54.09684
2022-07-02 18:39:00+00:00,202.0548,15.88,12.33,47.84626,-54.09684
2022-07-02 18:49:00+00:00,193.1497,15.93,12.33,47.84626,-54.09684
2022-07-02 18:59:00+00:00,192.7365,15.9,12.33,47.84626,-54.09684
2022-07-02 19:09:00+00:00,194.5465,15.88,12.33,47.84626,-54.09684
2022-07-02 19:19:00+00:00,189.9648,15.8,12.25,47.84626,-54.09684
2022-07-02 19:29:00+00:00,188.6182,15.8,12.25,47.84626,-54.09684
2022-07-02 19:39:00+00:00,194.4631,15.8,12.25,47.84626,-54.09684
2022-07-02 19:49:00+00:00,196.7164,15.78,12.25,47.84626,-54.09684
2022-07-02 19:59:00+00:00,192.7431,15.8,12.25,47.84626,-54.09684
2022-07-02 20:09:00+00:00,192.8548,15.8,12.25,47.84626,-54.09684
2022-07-02 20:19:00+00:00,197.9764,15.78,12.17,47.84626,-54.09684
2022-07-02 20:29:00+00:00,201.0148,15.72,12.17,47.84626,-54.09684
2022-07-02 20:39:00+00:00,206.1548,15.7,12.17,47.84626,-54.09684
2022-07-02 20:49:00+00:00,214.8048,15.7,12.17,47.84626,-54.09684
2022-07-02 20:59:00+00:00,222.4315,15.8,12.17,47.84626,-54.09684
2022-07-02 21:09:00+00:00,226.8598,15.73,12.17,47.84626,-54.09684
2022-07-02 21:19:00+00:00,228.7764,15.9,12.17,47.84626,-54.09684
2022-07-02 21:29:00+00:00,232.2531,16.0,12.17,47.84626,-54.09684
2022-07-02 21:39:00+00:00,236.4981,16.0,12.17,47.84626,-54.09684
2022-07-02 21:49:00+00:00,239.9931,16.0,12.17,47.84626,-54.09684
2022-07-02 21:59:00+00:00,240.9948,16.09,12.17,47.84626,-54.09684
2022-07-02 22:09:00+00:00,240.9531,16.1,12.17,47.84626,-54.09684
2022-07-02 22:19:00+00:00,244.1031,16.11,12.17,47.84626,-54.09684
2022-07-02 22:29:00+00:00,252.243,16.17,12.17,47.84626,-54.09684
2022-07-02 22:39:00+00:00,258.6631,16.2,12.17,47.84626,-54.09684
2022-07-02 22:49:00+00:00,263.4314,16.27,12.17,47.84626,-54.09684
2022-07-02 22:59:00+00:00,271.2681,16.34,12.17,47.84626,-54.09684
2022-07-02 23:09:00+00:00,278.9614,16.39,12.17,47.84626,-54.09684
2022-07-02 23:19:01+00:00,282.1697,16.39,12.17,47.84626,-54.09684
2022-07-02 23:29:01+00:00,286.2964,16.37,12.17,47.84626,-54.09684
2022-07-02 23:39:01+00:00,293.3497,16.3,12.17,47.84626,-54.09684
2022-07-02 23:49:01+00:00,297.663,16.2,12.17,47.84626,-54.09684
2022-07-02 23:59:01+00:00,298.8748,16.1,12.17,47.84626,-54.09684
